Location: Владивосток
(43.1151°N, 131.8856°E)
Time: 12:37:09
(UTC+10:00)

VELOX 1 - Pass Details

Date: 06 July 2022
Orbit: 624 x 639 km, 98.4° (Epoch: 08 August)

Event Time Altitude Azimuth Distance (km) Brightness Sun altitude
Rises 04:47:06 0° 135° (SE) 2,923 ? -8.4°
Reaches altitude 10° 04:49:33 10° 122° (ESE) 2,022 ? -8.1°
Maximum altitude 04:53:11 26° 66° (ENE) 1,264 ? -7.6°
Drops below altitude 10° 04:56:51 10° 11° (N) 2,039 ? -7.1°
Sets 04:59:20 0° 359° (N) 2,954 ? -6.7°
